This is the latest recevied weather packets stored in our database for station/object VK1KCM-5. If no packets are shown the sender has not sent any weather packets the latest 10 day(s).
| Time | Temp. | Humidity | Pressure | Rain* | Wind** | Luminosity | Snow |
|---|---|---|---|---|---|---|---|
| 1787425275 | 2.22° C | 99% | 1027.1 hPa | 0 mm | - | - | - |
| 1787424978 | 1.67° C | 99% | 1027 hPa | 0 mm | - | - | - |
| 1787424693 | 1.67° C | 99% | 1027 hPa | 0 mm | - | - | - |
| 1787424413 | 1.67° C | 99% | 1026.8 hPa | 0 mm | - | - | - |
| 1787424128 | 1.67° C | 99% | 1026.7 hPa | 0 mm | - | - | - |
| 1787423853 | 1.67° C | 99% | 1026.8 hPa | 0 mm | - | - | - |
| 1787423558 | 1.67° C | 99% | 1026.8 hPa | 0 mm | - | - | - |
| 1787423268 | 1.11° C | 99% | 1026.9 hPa | 0 mm | - | - | - |
| 1787422969 | 1.11° C | 99% | 1027 hPa | 0 mm | - | - | - |
| 1787422692 | 0.56° C | 99% | 1027 hPa | 0 mm | - | - | - |
| 1787422414 | 0.56° C | 99% | 1027 hPa | 0 mm | - | - | - |
| 1787422153 | 0.56° C | 99% | 1027.2 hPa | 0 mm | - | - | - |
| 1787421908 | 0.56° C | 99% | 1026.9 hPa | 0 mm | - | - | - |
| 1787421618 | 0° C | 99% | 1027.1 hPa | 0 mm | - | - | - |
| 1787421328 | 0° C | 99% | 1026.7 hPa | 0 mm | - | - | - |
| 1787421053 | 0° C | 99% | 1026.7 hPa | 0 mm | - | - | - |
| 1787420763 | 0.56° C | 99% | 1026.7 hPa | 0 mm | - | - | - |
| 1787420483 | 0.56° C | 99% | 1026.8 hPa | 0 mm | - | - | - |
| 1787420213 | 1.11° C | 99% | 1026.5 hPa | 0 mm | - | - | - |
| 1787419938 | 1.11° C | 99% | 1026.5 hPa | 0 mm | - | - | - |
| 1787419678 | 1.11° C | 99% | 1027 hPa | 0 mm | - | - | - |
| 1787419386 | 1.11° C | 99% | 1026.8 hPa | 0 mm | - | - | - |
| 1787419118 | 1.67° C | 99% | 1026.7 hPa | 0 mm | - | - | - |
| 1787418833 | 1.67° C | 99% | 1026.6 hPa | 0 mm | - | - | - |
| 1787418567 | 1.67° C | 99% | 1026.7 hPa | 0 mm | - | - | - |
* Rain latest hour (hover to see other rain measurements)
** Current wind speed in m/s (hover to see current wind gust speed)